Voltar ao catálogo

HAWK-2A

AtivoMilitarSSO
NORAD 47505·PAYLOAD·🇺🇸 United States

Lançado Jan 24, 2021 de Cape Canaveral Space Force Station

Loading…

Próximas Passagens (próximas 24 horas)

TLE

AtualizadoSource: Space-Track

Época: Sep 13, 2026, 16:05 UTC

1 47505U 21006CW  26256.67029278  .00004911  00000-0  14388-3 0  9994
2 47505  97.2239 299.9679 0004673 238.7988 121.2798 15.35658856313077

Acompanhe HAWK-2A em tempo real com AllMySat

Download on the App Store